ZHONGXING-10

Last updated on Wed Sep 17 2025 00:02:47 GMT+0000 (Coordinated Universal Time)

1 37677U 11026A 25259.63357375 -.00000122 00000+0 00000+0 0 9996 2 37677 0.3347 87.6445 0005131 105.5245 107.3961 1.00271708 52252
UTC large
Height (km)
Speed (km/s)
/
Latitude / Longitude
Inclination (degrees)
Orbital Period (minutes)
Azimuth
Elevation
Range (km)
Doppler Factor

Next 0 passes for location: London (51.5072 / 0.1276)

Sorry there are no passes over London.